| time (UTC) | temp C | wind direction | speed KPH | gust KPH | rain 1hr cm | rain 24hr cm | rain mn cm | humidity % | barometer mb |
| 20260507185504 | 13 | 231 | 6.4 | 27.4 | 0.00 | 0.00 | 0.00 | 44 | 1010.9 |
| 20260507185004 | 13 | 189 | 14.5 | 27.4 | 0.00 | 0.00 | 0.00 | 46 | 1011.0 |
| 20260507184522 | 13 | 214 | 9.7 | 24.1 | 0.00 | 0.00 | 0.00 | 43 | 1011.0 |
| 20260507184007 | 13 | 241 | 9.7 | 24.1 | 0.00 | 0.00 | 0.00 | 44 | 1011.1 |
| 20260507183510 | 13 | 237 | 12.9 | 27.4 | 0.00 | 0.00 | 0.00 | 43 | 1011.0 |
| 20260507183028 | 13 | 180 | 16.1 | 27.4 | 0.00 | 0.00 | 0.00 | 43 | 1011.0 |
| 20260507182503 | 13 | 210 | 9.7 | 27.4 | 0.00 | 0.00 | 0.00 | 41 | 1011.0 |
| 20260507182007 | 13 | 225 | 12.9 | 27.4 | 0.00 | 0.00 | 0.00 | 45 | 1011.0 |
| 20260507181509 | 13 | 164 | 8.0 | 17.7 | 0.00 | 0.00 | 0.00 | 44 | 1011.0 |
| 20260507181004 | 13 | 131 | 9.7 | 24.1 | 0.00 | 0.00 | 0.00 | 43 | 1011.1 |
| 20260507180504 | 12 | 214 | 16.1 | 24.1 | 0.00 | 0.00 | 0.00 | 44 | 1011.1 |
| 20260507180012 | 13 | 179 | 4.8 | 19.3 | 0.00 | 0.00 | 0.00 | 46 | 1011.2 |
| 20260507175504 | 12 | 203 | 11.3 | 20.9 | 0.00 | 0.00 | 0.00 | 43 | 1011.4 |
| 20260507175009 | 13 | 169 | 12.9 | 20.9 | 0.00 | 0.00 | 0.00 | 41 | 1011.4 |
| 20260507174521 | 13 | 158 | 6.4 | 17.7 | 0.00 | 0.00 | 0.00 | 45 | 1011.5 |
| 20260507174004 | 12 | 241 | 8.0 | 20.9 | 0.00 | 0.00 | 0.00 | 43 | 1011.5 |
| 20260507173506 | 12 | 266 | 11.3 | 25.7 | 0.00 | 0.00 | 0.00 | 44 | 1011.5 |
| 20260507173038 | 13 | 223 | 12.9 | 25.7 | 0.00 | 0.00 | 0.00 | 42 | 1011.6 |
| 20260507172507 | 13 | 202 | 4.8 | 24.1 | 0.00 | 0.00 | 0.00 | 46 | 1011.7 |
| 20260507172005 | 12 | 197 | 11.3 | 24.1 | 0.00 | 0.00 | 0.00 | 43 | 1011.7 |
| 20260507171527 | 12 | 170 | 9.7 | 24.1 | 0.00 | 0.00 | 0.00 | 42 | 1011.8 |
| 20260507171005 | 13 | 153 | 8.0 | 22.5 | 0.00 | 0.00 | 0.00 | 43 | 1011.8 |
| 20260507170504 | 13 | 194 | 8.0 | 25.7 | 0.00 | 0.00 | 0.00 | 44 | 1011.8 |
| 20260507170013 | 12 | 222 | 9.7 | 25.7 | 0.00 | 0.00 | 0.00 | 43 | 1011.9 |
| 20260507165505 | 12 | 278 | 0.0 | 20.9 | 0.00 | 0.00 | 0.00 | 43 | 1011.9 |
| 20260507165004 | 12 | 222 | 14.5 | 20.9 | 0.00 | 0.00 | 0.00 | 43 | 1012.0 |
| 20260507164516 | 12 | 156 | 9.7 | 17.7 | 0.00 | 0.00 | 0.00 | 45 | 1012.0 |
| 20260507164006 | 12 | 205 | 11.3 | 17.7 | 0.00 | 0.00 | 0.00 | 44 | 1012.1 |
| 20260507163505 | 12 | 142 | 4.8 | 20.9 | 0.00 | 0.00 | 0.00 | 47 | 1012.1 |
| 20260507163021 | 12 | 148 | 9.7 | 20.9 | 0.00 | 0.00 | 0.00 | 44 | 1012.1 |
| 20260507162507 | 12 | 221 | 8.0 | 20.9 | 0.00 | 0.00 | 0.00 | 47 | 1012.1 |
| 20260507162007 | 11 | 172 | 6.4 | 16.1 | 0.00 | 0.00 | 0.00 | 44 | 1012.2 |
| 20260507161525 | 11 | 217 | 4.8 | 16.1 | 0.00 | 0.00 | 0.00 | 45 | 1012.3 |
| 20260507161009 | 12 | 111 | 9.7 | 16.1 | 0.00 | 0.00 | 0.00 | 43 | 1012.3 |
| 20260507160508 | 11 | 263 | 1.6 | 17.7 | 0.00 | 0.00 | 0.00 | 43 | 1012.3 |
| 20260507160010 | 11 | 193 | 11.3 | 17.7 | 0.00 | 0.00 | 0.00 | 44 | 1012.3 |
| 20260507155507 | 11 | 212 | 3.2 | 20.9 | 0.00 | 0.00 | 0.00 | 46 | 1012.3 |
| 20260507155006 | 11 | 176 | 8.0 | 20.9 | 0.00 | 0.00 | 0.00 | 45 | 1012.3 |
| 20260507154520 | 11 | 202 | 9.7 | 14.5 | 0.00 | 0.00 | 0.00 | 44 | 1012.4 |
| 20260507154007 | 11 | 218 | 8.0 | 19.3 | 0.00 | 0.00 | 0.00 | 45 | 1012.4 |
| 20260507153504 | 11 | 198 | 11.3 | 22.5 | 0.00 | 0.00 | 0.00 | 44 | 1012.4 |
| 20260507153022 | 11 | 231 | 11.3 | 22.5 | 0.00 | 0.00 | 0.00 | 46 | 1012.5 |
| 20260507152508 | 11 | 211 | 11.3 | 22.5 | 0.00 | 0.00 | 0.00 | 45 | 1012.5 |
| 20260507152007 | 11 | 226 | 8.0 | 19.3 | 0.00 | 0.00 | 0.00 | 47 | 1012.5 |
| 20260507151525 | 11 | 153 | 8.0 | 16.1 | 0.00 | 0.00 | 0.00 | 46 | 1012.5 |
| 20260507151007 | 11 | 142 | 9.7 | 16.1 | 0.00 | 0.00 | 0.00 | 46 | 1012.7 |
| 20260507150511 | 11 | 225 | 4.8 | 19.3 | 0.00 | 0.00 | 0.00 | 48 | 1012.8 |
| 20260507150026 | 11 | 147 | 14.5 | 19.3 | 0.00 | 0.00 | 0.00 | 46 | 1012.9 |
| 20260507145513 | 11 | 172 | 1.6 | 24.1 | 0.00 | 0.00 | 0.00 | 47 | 1012.9 |
| 20260507145003 | 11 | 141 | 11.3 | 24.1 | 0.00 | 0.00 | 0.00 | 45 | 1013.0 |
| 20260507144517 | 11 | 191 | 8.0 | 17.7 | 0.00 | 0.00 | 0.00 | 48 | 1013.0 |
| 20260507144006 | 11 | 172 | 8.0 | 17.7 | 0.00 | 0.00 | 0.00 | 45 | 1013.0 |
| 20260507143503 | 10 | 285 | 4.8 | 17.7 | 0.00 | 0.00 | 0.00 | 49 | 1013.1 |
| 20260507143019 | 10 | 236 | 11.3 | 22.5 | 0.00 | 0.00 | 0.00 | 45 | 1013.2 |
| 20260507142503 | 10 | 203 | 12.9 | 22.5 | 0.00 | 0.00 | 0.00 | 51 | 1013.2 |
| 20260507142012 | 10 | 224 | 8.0 | 17.7 | 0.00 | 0.00 | 0.00 | 47 | 1013.3 |
| 20260507141525 | 10 | 251 | 8.0 | 16.1 | 0.00 | 0.00 | 0.00 | 46 | 1013.3 |
| 20260507141007 | 10 | 198 | 8.0 | 16.1 | 0.00 | 0.00 | 0.00 | 46 | 1013.5 |
| 20260507140507 | 10 | 194 | 8.0 | 16.1 | 0.00 | 0.00 | 0.00 | 46 | 1013.7 |
| 20260507140026 | 10 | 251 | 8.0 | 16.1 | 0.00 | 0.00 | 0.00 | 50 | 1013.7 |
| 20260507135507 | 10 | 216 | 8.0 | 17.7 | 0.00 | 0.00 | 0.00 | 48 | 1013.8 |
| 20260507135009 | 10 | 226 | 9.7 | 20.9 | 0.00 | 0.00 | 0.00 | 48 | 1013.8 |
| 20260507134530 | 10 | 205 | 9.7 | 20.9 | 0.00 | 0.00 | 0.00 | 47 | 1013.9 |
| 20260507134007 | 10 | 145 | 8.0 | 16.1 | 0.00 | 0.00 | 0.00 | 51 | 1013.8 |
| 20260507133503 | 10 | 184 | 9.7 | 16.1 | 0.00 | 0.00 | 0.00 | 49 | 1013.8 |
| 20260507133017 | 10 | 168 | 4.8 | 14.5 | 0.00 | 0.00 | 0.00 | 51 | 1013.7 |
| 20260507132503 | 10 | 221 | 4.8 | 11.3 | 0.00 | 0.00 | 0.00 | 49 | 1013.7 |
| 20260507132006 | 9 | 274 | 3.2 | 8.0 | 0.00 | 0.00 | 0.00 | 56 | 1013.7 |
| 20260507131523 | 9 | 202 | 1.6 | 9.7 | 0.00 | 0.00 | 0.00 | 59 | 1013.7 |
| 20260507131011 | 8 | 134 | 4.8 | 9.7 | 0.00 | 0.00 | 0.00 | 59 | 1013.8 |
| 20260507130510 | 8 | 199 | 3.2 | 9.7 | 0.00 | 0.00 | 0.00 | 59 | 1013.8 |
| 20260507130024 | 8 | 84 | 3.2 | 11.3 | 0.00 | 0.00 | 0.00 | 59 | 1013.9 |
| 20260507125507 | 8 | 261 | 8.0 | 11.3 | 0.00 | 0.00 | 0.00 | 58 | 1013.9 |
| 20260507125008 | 8 | 321 | 0.0 | 6.4 | 0.00 | 0.00 | 0.00 | 63 | 1013.9 |
| 20260507124525 | 8 | 297 | 1.6 | 6.4 | 0.00 | 0.00 | 0.00 | 64 | 1013.9 |
| 20260507124011 | 8 | 302 | 1.6 | 4.8 | 0.00 | 0.00 | 0.00 | 67 | 1013.9 |
| 20260507123507 | 7 | 297 | 0.0 | 3.2 | 0.00 | 0.00 | 0.00 | 69 | 1013.9 |
| 20260507123015 | 7 | 285 | 0.0 | 3.2 | 0.00 | 0.00 | 0.00 | 71 | 1014.0 |
| 20260507122504 | 7 | 316 | 1.6 | 3.2 | 0.00 | 0.00 | 0.00 | 72 | 1014.0 |
| 20260507122008 | 7 | 347 | 0.0 | 3.2 | 0.00 | 0.00 | 0.00 | 73 | 1014.0 |
| 20260507121514 | 7 | 359 | 0.0 | 3.2 | 0.00 | 0.00 | 0.00 | 76 | 1014.0 |
| 20260507121004 | 6 | 318 | 1.6 | 3.2 | 0.00 | 0.00 | 0.00 | 77 | 1014.0 |
| 20260507120502 | 6 | 333 | 0.0 | 0.0 | 0.00 | 0.00 | 0.00 | 77 | 1013.9 |
| 20260507120003 | 6 | 338 | 0.0 | 3.2 | 0.00 | 0.00 | 0.00 | 79 | 1014.0 |
| 20260507115503 | 6 | 325 | 0.0 | 3.2 | 0.00 | 0.00 | 0.00 | 79 | 1014.0 |
| 20260507115006 | 5 | 355 | 0.0 | 3.2 | 0.00 | 0.00 | 0.00 | 79 | 1014.1 |
| 20260507114507 | 5 | 329 | 0.0 | 0.0 | 0.00 | 0.00 | 0.00 | 81 | 1014.0 |
| 20260507114003 | 5 | 245 | 0.0 | 0.0 | 0.00 | 0.03 | 0.00 | 81 | 1014.0 |
| 20260507113504 | 4 | 245 | 0.0 | 0.0 | 0.00 | 0.03 | 0.00 | 85 | 1014.0 |
| 20260507113013 | 3 | 245 | 0.0 | 0.0 | 0.00 | 0.03 | 0.00 | 87 | 1013.9 |
| 20260507112506 | 3 | 245 | 0.0 | 0.0 | 0.00 | 0.03 | 0.00 | 88 | 1013.8 |
| 20260507112004 | 2 | 185 | 0.0 | 0.0 | 0.00 | 0.03 | 0.00 | 91 | 1013.7 |
| 20260507111517 | 2 | 185 | 0.0 | 0.0 | 0.00 | 0.05 | 0.00 | 91 | 1013.6 |
| 20260507111004 | 1 | 185 | 0.0 | 0.0 | 0.00 | 0.05 | 0.00 | 91 | 1013.6 |
| 20260507110508 | 1 | 185 | 0.0 | 0.0 | 0.00 | 0.08 | 0.00 | 91 | 1013.4 |
| 20260507110005 | 1 | 185 | 0.0 | 1.6 | 0.00 | 0.08 | 0.00 | 91 | 1013.5 |
| 20260507105503 | 1 | 185 | 0.0 | 1.6 | 0.00 | 0.10 | 0.00 | 90 | 1013.5 |
| 20260507105003 | 1 | 194 | 0.0 | 0.0 | 0.00 | 0.10 | 0.00 | 89 | 1013.5 |
| 20260507104508 | 1 | 194 | 0.0 | 0.0 | 0.00 | 0.13 | 0.00 | 89 | 1013.3 |
| 20260507104004 | 1 | 194 | 0.0 | 0.0 | 0.00 | 0.13 | 0.00 | 89 | 1013.3 |
| 20260507103504 | 1 | 194 | 0.0 | 0.0 | 0.00 | 0.15 | 0.00 | 89 | 1013.3 |
| 20260507103008 | 1 | 194 | 0.0 | 0.0 | 0.00 | 0.15 | 0.00 | 89 | 1013.2 |
| 20260507102504 | 1 | 194 | 0.0 | 0.0 | 0.00 | 0.15 | 0.00 | 88 | 1013.1 |
| 20260507102003 | 1 | 194 | 0.0 | 0.0 | 0.00 | 0.15 | 0.00 | 88 | 1013.0 |
| 20260507101514 | 1 | 194 | 0.0 | 0.0 | 0.00 | 0.20 | 0.00 | 87 | 1013.1 |
| 20260507101004 | 1 | 194 | 0.0 | 0.0 | 0.00 | 0.20 | 0.00 | 87 | 1013.0 |
| 20260507100503 | 1 | 194 | 0.0 | 0.0 | 0.00 | 0.20 | 0.00 | 87 | 1013.0 |
| 20260507100019 | 1 | 194 | 0.0 | 0.0 | 0.00 | 0.20 | 0.00 | 86 | 1013.0 |
| 20260507095505 | 1 | 194 | 0.0 | 0.0 | 0.00 | 0.23 | 0.00 | 86 | 1013.0 |
| 20260507095008 | 2 | 194 | 0.0 | 0.0 | 0.00 | 0.23 | 0.00 | 86 | 1012.9 |
| 20260507094505 | 2 | 194 | 0.0 | 0.0 | 0.00 | 0.23 | 0.00 | 84 | 1013.0 |
| 20260507094005 | 2 | 194 | 0.0 | 0.0 | 0.00 | 0.23 | 0.00 | 84 | 1013.1 |
| 20260507093503 | 2 | 194 | 0.0 | 0.0 | 0.00 | 0.23 | 0.00 | 84 | 1013.1 |
| 20260507093007 | 2 | 194 | 0.0 | 0.0 | 0.00 | 0.23 | 0.00 | 84 | 1013.2 |
| 20260507092504 | 2 | 195 | 0.0 | 0.0 | 0.00 | 0.25 | 0.00 | 83 | 1013.2 |
| 20260507092006 | 3 | 194 | 0.0 | 0.0 | 0.00 | 0.25 | 0.00 | 83 | 1013.1 |
| 20260507091509 | 3 | 200 | 0.0 | 0.0 | 0.00 | 0.28 | 0.00 | 82 | 1013.1 |
| 20260507091004 | 3 | 217 | 0.0 | 0.0 | 0.00 | 0.28 | 0.00 | 81 | 1013.1 |
| 20260507090503 | 3 | 217 | 0.0 | 3.2 | 0.00 | 0.30 | 0.00 | 80 | 1013.2 |
| 20260507090019 | 3 | 217 | 0.0 | 3.2 | 0.00 | 0.30 | 0.00 | 80 | 1013.1 |
| 20260507085504 | 4 | 218 | 0.0 | 3.2 | 0.00 | 0.30 | 0.00 | 79 | 1013.0 |
| 20260507085004 | 4 | 218 | 0.0 | 0.0 | 0.00 | 0.30 | 0.00 | 78 | 1013.0 |
| 20260507084524 | 5 | 219 | 0.0 | 3.2 | 0.00 | 0.30 | 0.00 | 77 | 1013.0 |
| 20260507084004 | 5 | 200 | 0.0 | 3.2 | 0.00 | 0.30 | 0.00 | 75 | 1013.0 |
| 20260507083502 | 5 | 200 | 0.0 | 0.0 | 0.00 | 0.30 | 0.00 | 75 | 1013.0 |
| 20260507083004 | 6 | 200 | 0.0 | 0.0 | 0.00 | 0.30 | 0.00 | 72 | 1013.0 |
| 20260507082503 | 6 | 200 | 0.0 | 0.0 | 0.00 | 0.30 | 0.00 | 72 | 1013.0 |
| 20260507082005 | 6 | 200 | 0.0 | 0.0 | 0.00 | 0.30 | 0.00 | 71 | 1013.0 |
| 20260507081519 | 6 | 200 | 0.0 | 3.2 | 0.00 | 0.30 | 0.00 | 69 | 1013.0 |
| 20260507081004 | 6 | 200 | 0.0 | 3.2 | 0.00 | 0.30 | 0.00 | 67 | 1013.0 |
| 20260507080506 | 6 | 248 | 0.0 | 4.8 | 0.00 | 0.30 | 0.00 | 66 | 1013.0 |
| 20260507080015 | 6 | 248 | 1.6 | 4.8 | 0.00 | 0.30 | 0.00 | 65 | 1013.0 |
| 20260507075503 | 7 | 211 | 0.0 | 4.8 | 0.00 | 0.30 | 0.00 | 66 | 1012.9 |
| 20260507075009 | 7 | 236 | 1.6 | 4.8 | 0.00 | 0.30 | 0.00 | 65 | 1012.9 |
| 20260507074520 | 7 | 221 | 0.0 | 8.0 | 0.00 | 0.30 | 0.00 | 65 | 1013.0 |
| 20260507074004 | 7 | 233 | 3.2 | 8.0 | 0.00 | 0.30 | 0.00 | 65 | 1012.9 |
| 20260507073506 | 7 | 231 | 4.8 | 9.7 | 0.00 | 0.30 | 0.00 | 65 | 1012.9 |
| 20260507073022 | 7 | 221 | 4.8 | 9.7 | 0.00 | 0.30 | 0.00 | 64 | 1012.8 |
| 20260507072505 | 7 | 245 | 8.0 | 9.7 | 0.00 | 0.30 | 0.00 | 65 | 1012.8 |
| 20260507072003 | 7 | 257 | 4.8 | 8.0 | 0.00 | 0.30 | 0.00 | 65 | 1012.8 |
| 20260507071507 | 7 | 250 | 0.0 | 3.2 | 0.00 | 0.30 | 0.00 | 66 | 1012.7 |
| 20260507071005 | 7 | 270 | 0.0 | 3.2 | 0.00 | 0.30 | 0.00 | 66 | 1012.7 |
| 20260507070504 | 7 | 258 | 0.0 | 4.8 | 0.00 | 0.30 | 0.00 | 65 | 1012.9 |
| 20260507070018 | 7 | 245 | 1.6 | 4.8 | 0.00 | 0.30 | 0.00 | 65 | 1013.1 |
| 20260507065503 | 7 | 252 | 1.6 | 4.8 | 0.00 | 0.30 | 0.00 | 67 | 1013.0 |
| 20260507065003 | 7 | 269 | 0.0 | 6.4 | 0.00 | 0.30 | 0.00 | 65 | 1013.0 |
| 20260507064517 | 7 | 188 | 1.6 | 6.4 | 0.00 | 0.30 | 0.00 | 65 | 1013.1 |
| 20260507064003 | 7 | 240 | 1.6 | 4.8 | 0.00 | 0.30 | 0.00 | 65 | 1013.1 |
| 20260507063508 | 6 | 243 | 1.6 | 6.4 | 0.00 | 0.30 | 0.00 | 69 | 1013.1 |
| 20260507063020 | 6 | 249 | 1.6 | 6.4 | 0.00 | 0.30 | 0.00 | 75 | 1013.1 |
| 20260507062507 | 6 | 219 | 0.0 | 3.2 | 0.00 | 0.30 | 0.00 | 77 | 1013.3 |
| 20260507062006 | 7 | 219 | 0.0 | 1.6 | 0.00 | 0.30 | 0.00 | 76 | 1013.5 |
| 20260507061522 | 7 | 264 | 0.0 | 0.0 | 0.00 | 0.30 | 0.00 | 75 | 1013.5 |
| 20260507061004 | 7 | 264 | 0.0 | 0.0 | 0.00 | 0.30 | 0.00 | 77 | 1013.5 |
| 20260507060502 | 7 | 250 | 0.0 | 0.0 | 0.00 | 0.30 | 0.00 | 76 | 1013.6 |
| 20260507060012 | 7 | 250 | 0.0 | 3.2 | 0.00 | 0.30 | 0.00 | 73 | 1013.5 |
| 20260507055505 | 7 | 250 | 0.0 | 3.2 | 0.00 | 0.30 | 0.00 | 72 | 1013.4 |
| 20260507055004 | 7 | 250 | 0.0 | 4.8 | 0.00 | 0.30 | 0.00 | 72 | 1013.5 |
| 20260507054517 | 7 | 255 | 1.6 | 4.8 | 0.00 | 0.30 | 0.00 | 72 | 1013.6 |
| 20260507054004 | 7 | 213 | 0.0 | 3.2 | 0.00 | 0.30 | 0.00 | 74 | 1013.7 |
| 20260507053504 | 7 | 213 | 0.0 | 0.0 | 0.00 | 0.30 | 0.00 | 74 | 1013.7 |
| 20260507053020 | 7 | 213 | 0.0 | 0.0 | 0.00 | 0.30 | 0.00 | 74 | 1013.8 |
| 20260507052508 | 7 | 213 | 0.0 | 0.0 | 0.00 | 0.30 | 0.00 | 73 | 1013.8 |
| 20260507052006 | 7 | 213 | 0.0 | 3.2 | 0.00 | 0.30 | 0.00 | 71 | 1013.7 |
| 20260507051523 | 7 | 213 | 0.0 | 4.8 | 0.00 | 0.30 | 0.00 | 72 | 1013.8 |
| 20260507051006 | 7 | 213 | 1.6 | 4.8 | 0.00 | 0.30 | 0.00 | 71 | 1013.8 |
| 20260507050505 | 7 | 223 | 1.6 | 4.8 | 0.00 | 0.30 | 0.00 | 70 | 1013.8 |
| 20260507050006 | 7 | 241 | 0.0 | 6.4 | 0.00 | 0.30 | 0.00 | 70 | 1013.7 |
| 20260507045504 | 8 | 229 | 1.6 | 6.4 | 0.00 | 0.30 | 0.00 | 71 | 1013.8 |
| 20260507045004 | 8 | 219 | 1.6 | 4.8 | 0.00 | 0.30 | 0.00 | 70 | 1013.8 |
| 20260507044530 | 8 | 217 | 1.6 | 4.8 | 0.00 | 0.30 | 0.00 | 71 | 1013.8 |
| 20260507044006 | 8 | 238 | 1.6 | 3.2 | 0.00 | 0.30 | 0.00 | 71 | 1013.8 |
| 20260507043502 | 8 | 240 | 1.6 | 3.2 | 0.00 | 0.30 | 0.00 | 71 | 1013.7 |
| 20260507043018 | 8 | 210 | 1.6 | 6.4 | 0.00 | 0.30 | 0.00 | 72 | 1013.7 |
| 20260507042504 | 8 | 214 | 0.0 | 6.4 | 0.00 | 0.30 | 0.00 | 71 | 1013.8 |
| 20260507042007 | 8 | 244 | 3.2 | 6.4 | 0.00 | 0.30 | 0.00 | 72 | 1013.8 |
| 20260507041523 | 8 | 216 | 3.2 | 4.8 | 0.00 | 0.30 | 0.00 | 71 | 1013.8 |
| 20260507041005 | 8 | 238 | 0.0 | 3.2 | 0.00 | 0.30 | 0.00 | 72 | 1013.6 |
| 20260507040508 | 8 | 243 | 0.0 | 6.4 | 0.00 | 0.30 | 0.00 | 71 | 1013.7 |
| 20260507040031 | 8 | 243 | 3.2 | 6.4 | 0.00 | 0.30 | 0.00 | 71 | 1013.8 |
| 20260507035505 | 8 | 225 | 1.6 | 4.8 | 0.00 | 0.30 | 0.30 | 72 | 1013.8 |
| 20260507035006 | 8 | 242 | 1.6 | 4.8 | 0.00 | 0.30 | 0.30 | 71 | 1013.7 |
| 20260507034512 | 8 | 233 | 0.0 | 4.8 | 0.00 | 0.30 | 0.30 | 73 | 1013.7 |
| 20260507034006 | 8 | 228 | 3.2 | 6.4 | 0.00 | 0.30 | 0.30 | 72 | 1013.9 |
| 20260507033505 | 8 | 232 | 3.2 | 6.4 | 0.00 | 0.30 | 0.30 | 73 | 1013.8 |
| 20260507033016 | 8 | 207 | 0.0 | 6.4 | 0.00 | 0.30 | 0.30 | 74 | 1013.6 |
| 20260507032504 | 8 | 250 | 1.6 | 8.0 | 0.00 | 0.30 | 0.30 | 74 | 1013.4 |
| 20260507032008 | 8 | 269 | 1.6 | 8.0 | 0.00 | 0.30 | 0.30 | 74 | 1013.5 |
| 20260507031520 | 8 | 237 | 0.0 | 3.2 | 0.00 | 0.30 | 0.30 | 77 | 1013.4 |
| 20260507031004 | 8 | 241 | 0.0 | 4.8 | 0.00 | 0.30 | 0.30 | 77 | 1013.5 |
| 20260507030511 | 8 | 241 | 0.0 | 6.4 | 0.00 | 0.30 | 0.30 | 76 | 1013.3 |
| 20260507030026 | 8 | 240 | 3.2 | 6.4 | 0.00 | 0.30 | 0.30 | 75 | 1013.3 |
| 20260507025508 | 8 | 225 | 1.6 | 8.0 | 0.00 | 0.30 | 0.30 | 76 | 1013.3 |
| 20260507025006 | 8 | 238 | 3.2 | 8.0 | 0.00 | 0.30 | 0.30 | 76 | 1013.2 |
| 20260507024525 | 9 | 239 | 3.2 | 8.0 | 0.00 | 0.30 | 0.30 | 76 | 1013.5 |
| 20260507024006 | 9 | 240 | 1.6 | 12.9 | 0.00 | 0.30 | 0.30 | 75 | 1013.4 |
| 20260507023505 | 9 | 286 | 3.2 | 12.9 | 0.00 | 0.30 | 0.30 | 76 | 1013.5 |
| 20260507023011 | 9 | 210 | 4.8 | 11.3 | 0.00 | 0.30 | 0.30 | 78 | 1013.5 |
| 20260507022506 | 9 | 229 | 3.2 | 6.4 | 0.00 | 0.30 | 0.30 | 79 | 1013.4 |
| 20260507022005 | 9 | 201 | 1.6 | 8.0 | 0.00 | 0.30 | 0.30 | 78 | 1013.3 |
| 20260507021522 | 9 | 204 | 3.2 | 8.0 | 0.00 | 0.30 | 0.30 | 78 | 1013.1 |
| 20260507021007 | 9 | 210 | 1.6 | 8.0 | 0.00 | 0.30 | 0.30 | 79 | 1012.8 |
| 20260507020508 | 9 | 226 | 4.8 | 6.4 | 0.00 | 0.30 | 0.30 | 78 | 1012.6 |
| 20260507020032 | 9 | 238 | 1.6 | 3.2 | 0.00 | 0.30 | 0.30 | 80 | 1012.4 |
| 20260507015508 | 9 | 217 | 0.0 | 1.6 | 0.00 | 0.30 | 0.30 | 81 | 1012.5 |
| 20260507015008 | 9 | 222 | 0.0 | 3.2 | 0.00 | 0.30 | 0.30 | 80 | 1012.7 |
| 20260507014528 | 9 | 211 | 1.6 | 4.8 | 0.00 | 0.30 | 0.30 | 81 | 1012.8 |
| 20260507014009 | 9 | 205 | 1.6 | 9.7 | 0.00 | 0.30 | 0.30 | 80 | 1012.8 |
| 20260507013505 | 9 | 229 | 4.8 | 9.7 | 0.00 | 0.30 | 0.30 | 80 | 1012.5 |
| 20260507013031 | 9 | 219 | 0.0 | 3.2 | 0.00 | 0.30 | 0.30 | 80 | 1012.5 |
| 20260507012504 | 9 | 248 | 0.0 | 4.8 | 0.00 | 0.30 | 0.30 | 80 | 1012.7 |
| 20260507012004 | 9 | 228 | 3.2 | 4.8 | 0.00 | 0.30 | 0.30 | 80 | 1012.6 |
| 20260507011517 | 9 | 190 | 0.0 | 4.8 | 0.00 | 0.30 | 0.30 | 80 | 1012.7 |
| 20260507011003 | 9 | 259 | 3.2 | 4.8 | 0.00 | 0.30 | 0.30 | 80 | 1012.5 |
| 20260507010506 | 9 | 240 | 3.2 | 6.4 | 0.00 | 0.30 | 0.30 | 80 | 1012.6 |
| 20260507010027 | 9 | 239 | 1.6 | 8.0 | 0.00 | 0.30 | 0.30 | 79 | 1012.8 |
| 20260507005508 | 9 | 208 | 3.2 | 9.7 | 0.00 | 0.30 | 0.30 | 79 | 1013.0 |
| 20260507005009 | 9 | 214 | 3.2 | 9.7 | 0.00 | 0.30 | 0.30 | 80 | 1012.9 |
| 20260507004531 | 9 | 257 | 3.2 | 8.0 | 0.00 | 0.30 | 0.30 | 80 | 1013.0 |
| 20260507004008 | 9 | 239 | 4.8 | 8.0 | 0.00 | 0.30 | 0.30 | 81 | 1013.2 |
| 20260507003508 | 9 | 162 | 1.6 | 6.4 | 0.00 | 0.30 | 0.30 | 81 | 1013.2 |
| 20260507003028 | 9 | 181 | 1.6 | 6.4 | 0.00 | 0.30 | 0.30 | 81 | 1013.3 |
| 20260507002506 | 9 | 214 | 3.2 | 6.4 | 0.00 | 0.30 | 0.30 | 81 | 1013.2 |
| 20260507002004 | 9 | 206 | 1.6 | 6.4 | 0.00 | 0.30 | 0.30 | 81 | 1013.2 |
| 20260507001521 | 9 | 196 | 3.2 | 9.7 | 0.00 | 0.30 | 0.30 | 81 | 1013.0 |
| 20260507001004 | 10 | 200 | 4.8 | 9.7 | 0.00 | 0.30 | 0.30 | 81 | 1012.8 |
| 20260507000506 | 10 | 232 | 4.8 | 9.7 | 0.00 | 0.30 | 0.30 | 81 | 1012.4 |
| 20260507000018 | 10 | 233 | 4.8 | 9.7 | 0.00 | 0.30 | 0.30 | 81 | 1012.7 |
| 20260506235504 | 10 | 229 | 4.8 | 9.7 | 0.00 | 0.30 | 0.30 | 81 | 1012.8 |
| 20260506235008 | 10 | 225 | 1.6 | 8.0 | 0.00 | 0.30 | 0.30 | 81 | 1012.8 |
| 20260506234523 | 10 | 208 | 4.8 | 9.7 | 0.00 | 0.30 | 0.30 | 81 | 1012.8 |
| 20260506234007 | 10 | 235 | 4.8 | 9.7 | 0.00 | 0.30 | 0.30 | 81 | 1012.6 |
| 20260506233509 | 10 | 195 | 4.8 | 8.0 | 0.00 | 0.30 | 0.30 | 81 | 1012.4 |
| 20260506233006 | 10 | 226 | 3.2 | 11.3 | 0.00 | 0.30 | 0.30 | 81 | 1012.4 |
| 20260506232504 | 10 | 223 | 4.8 | 11.3 | 0.00 | 0.30 | 0.30 | 81 | 1012.4 |
| 20260506232003 | 10 | 207 | 6.4 | 11.3 | 0.00 | 0.30 | 0.30 | 81 | 1012.2 |
| 20260506231514 | 10 | 214 | 4.8 | 11.3 | 0.00 | 0.30 | 0.30 | 81 | 1012.2 |
| 20260506231003 | 10 | 217 | 8.0 | 11.3 | 0.00 | 0.30 | 0.30 | 81 | 1012.1 |
| 20260506230505 | 10 | 205 | 3.2 | 11.3 | 0.00 | 0.30 | 0.30 | 81 | 1012.0 |
| 20260506230013 | 10 | 243 | 6.4 | 12.9 | 0.00 | 0.30 | 0.30 | 81 | 1012.0 |
| 20260506225504 | 10 | 231 | 4.8 | 12.9 | 0.00 | 0.30 | 0.30 | 81 | 1011.9 |
| 20260506225004 | 10 | 182 | 6.4 | 19.3 | 0.00 | 0.30 | 0.30 | 81 | 1011.9 |
| 20260506224524 | 10 | 205 | 11.3 | 19.3 | 0.00 | 0.30 | 0.30 | 81 | 1011.9 |
| 20260506224007 | 10 | 219 | 11.3 | 17.7 | 0.00 | 0.30 | 0.30 | 81 | 1011.9 |
| 20260506223507 | 10 | 218 | 9.7 | 17.7 | 0.00 | 0.30 | 0.30 | 82 | 1011.8 |
| 20260506223024 | 10 | 206 | 9.7 | 17.7 | 0.00 | 0.30 | 0.30 | 83 | 1012.0 |
| 20260506222511 | 10 | 227 | 6.4 | 16.1 | 0.00 | 0.30 | 0.30 | 83 | 1011.9 |
| 20260506222009 | 10 | 214 | 8.0 | 14.5 | 0.00 | 0.30 | 0.30 | 83 | 1011.8 |
| 20260506221507 | 10 | 221 | 9.7 | 14.5 | 0.00 | 0.30 | 0.30 | 83 | 1011.8 |
| 20260506221004 | 10 | 184 | 4.8 | 14.5 | 0.00 | 0.30 | 0.30 | 84 | 1011.7 |
| 20260506220504 | 10 | 245 | 8.0 | 16.1 | 0.00 | 0.30 | 0.30 | 84 | 1011.6 |
| 20260506220016 | 10 | 198 | 8.0 | 16.1 | 0.00 | 0.30 | 0.30 | 84 | 1011.6 |
| 20260506215503 | 10 | 231 | 9.7 | 16.1 | 0.00 | 0.30 | 0.30 | 84 | 1011.7 |
| 20260506215003 | 10 | 224 | 8.0 | 20.9 | 0.00 | 0.30 | 0.30 | 84 | 1011.5 |
| 20260506214520 | 10 | 191 | 11.3 | 20.9 | 0.00 | 0.30 | 0.30 | 84 | 1011.4 |
| 20260506214008 | 10 | 213 | 8.0 | 17.7 | 0.00 | 0.30 | 0.30 | 84 | 1011.3 |
| 20260506213508 | 10 | 217 | 4.8 | 14.5 | 0.00 | 0.30 | 0.30 | 84 | 1011.2 |
| 20260506213024 | 10 | 196 | 6.4 | 16.1 | 0.00 | 0.30 | 0.30 | 85 | 1011.2 |
| 20260506212507 | 10 | 213 | 8.0 | 16.1 | 0.00 | 0.30 | 0.30 | 86 | 1011.2 |
| 20260506212011 | 10 | 226 | 6.4 | 14.5 | 0.00 | 0.30 | 0.30 | 87 | 1011.1 |
| 20260506211527 | 10 | 210 | 8.0 | 12.9 | 0.00 | 0.30 | 0.30 | 87 | 1011.1 |
| 20260506211008 | 10 | 207 | 6.4 | 11.3 | 0.00 | 0.30 | 0.30 | 88 | 1010.8 |
| 20260506210504 | 10 | 216 | 6.4 | 12.9 | 0.00 | 0.30 | 0.30 | 88 | 1010.8 |
| 20260506210020 | 10 | 225 | 8.0 | 12.9 | 0.00 | 0.30 | 0.30 | 88 | 1010.6 |
| 20260506205506 | 10 | 236 | 6.4 | 12.9 | 0.00 | 0.30 | 0.30 | 88 | 1010.7 |
| 20260506205004 | 10 | 246 | 8.0 | 12.9 | 0.00 | 0.30 | 0.30 | 88 | 1010.6 |
| 20260506204518 | 10 | 167 | 3.2 | 11.3 | 0.00 | 0.30 | 0.30 | 89 | 1010.8 |
| 20260506204008 | 10 | 222 | 4.8 | 9.7 | 0.00 | 0.30 | 0.30 | 89 | 1010.7 |
| 20260506203504 | 10 | 226 | 6.4 | 12.9 | 0.00 | 0.30 | 0.30 | 89 | 1010.6 |
| 20260506203027 | 10 | 219 | 4.8 | 17.7 | 0.00 | 0.30 | 0.30 | 89 | 1010.5 |
| 20260506202505 | 10 | 231 | 8.0 | 17.7 | 0.00 | 0.30 | 0.30 | 88 | 1010.4 |
| 20260506202011 | 10 | 201 | 9.7 | 16.1 | 0.00 | 0.30 | 0.30 | 88 | 1010.6 |
| 20260506201524 | 10 | 163 | 8.0 | 14.5 | 0.00 | 0.30 | 0.30 | 89 | 1010.5 |
| 20260506201008 | 10 | 214 | 8.0 | 14.5 | 0.00 | 0.30 | 0.30 | 89 | 1010.5 |
| 20260506200515 | 10 | 225 | 8.0 | 17.7 | 0.00 | 0.30 | 0.30 | 89 | 1010.5 |
| 20260506200030 | 10 | 241 | 6.4 | 17.7 | 0.00 | 0.30 | 0.30 | 89 | 1010.5 |
| 20260506195507 | 10 | 244 | 11.3 | 17.7 | 0.00 | 0.30 | 0.30 | 88 | 1010.5 |
| 20260506195005 | 10 | 203 | 4.8 | 12.9 | 0.00 | 0.30 | 0.30 | 88 | 1010.5 |
| 20260506194516 | 10 | 207 | 8.0 | 12.9 | 0.00 | 0.30 | 0.30 | 87 | 1010.5 |
| 20260506194007 | 11 | 222 | 8.0 | 14.5 | 0.00 | 0.30 | 0.30 | 88 | 1010.4 |
| 20260506193504 | 10 | 193 | 6.4 | 17.7 | 0.00 | 0.30 | 0.30 | 88 | 1010.4 |
| 20260506193017 | 10 | 208 | 9.7 | 17.7 | 0.00 | 0.30 | 0.30 | 89 | 1010.4 |
| 20260506192504 | 10 | 179 | 8.0 | 17.7 | 0.00 | 0.30 | 0.30 | 89 | 1010.4 |
| 20260506192011 | 10 | 200 | 6.4 | 22.5 | 0.00 | 0.30 | 0.30 | 90 | 1010.5 |
| 20260506191528 | 10 | 198 | 9.7 | 22.5 | 0.00 | 0.30 | 0.30 | 89 | 1010.5 |
| 20260506191010 | 10 | 148 | 9.7 | 19.3 | 0.00 | 0.30 | 0.30 | 88 | 1010.4 |
| 20260506190511 | 11 | 230 | 11.3 | 19.3 | 0.00 | 0.30 | 0.30 | 87 | 1010.3 |
| 20260506190026 | 11 | 187 | 8.0 | 20.9 | 0.00 | 0.30 | 0.30 | 88 | 1010.3 |